FALCON 9 DEB (44976 NORAD) Tracking and Keplerian Element Data

This shows tracking and keplerian element data for the satellite.

Feedback or suggestion? Click here.




ElementValue
Catalog44976
NameFALCON 9 DEB
Epoch Orbit733
Epoch Day52.79001052
Epoch Year2020
RAAN160.603
Inclination52.9924
Eccentricity0.0005395
Argument of Perigee27.9094
Mean Anonmoly332.2229
Mean Motion16.12687227
Decay Rate0.00431791
L11 44976U 20001BQ 20052.79001052 .00431791 10911-3 37347-3 0 9993
L22 44976 52.9924 160.6030 0005395 27.9094 332.2229 16.12687227 7330

Live tracking and technical data element details for FALCON 9 DEB (NORAD 44976). FALCON 9 DEB can be tracked NOW for your location showing map with azimuth and elevation plus other details from your city location.

Track the satellite on the map from your city or location and see movement details for azimuth, elevation, latitude, longitude, range, height, and movement on the map or in text.







IsCatalogInMostPopularTable: catalog: 44976, numindb: 10
Update: records affected: 1



GetName: 44976 FALCON 9 DEB

Hit Count: updated at: Mon, 24 Feb 2020 17:56:32 GMT